Location: Barcelona
(41.3830°N, 2.1830°E)
Time: 22:47:16
(UTC+01:00)

ISS - Pass Details

Date: 18 January 2018
Orbit: 402 x 407 km, 51.6° (Epoch: 23 January)

Event Time Altitude Azimuth Distance (km) Brightness Sun altitude
Exits shadow 06:02:40 12° 165° (SSE) 1,328 -1.0 -24.3°
Drops below altitude 10° 06:03:02 10° 162° (SSE) 1,456 -0.7 -24.2°
Sets 06:05:15 0° 151° (SSE) 2,313 0.5 -23.8°
